Weather Roundup
Issued by NWS Springfield, MO

Home | Current Version | Previous Version | Text Only | Print | Product List | Glossary On
Versions: 1 2 3 4 5 6 7 8 9 10 11 12 13 14 15 16 17 18 19 20 21 22 23 24 25 26 27 28 29 30 31 32 33 34 35 36 37 38 39 40 41 42 43 44 45 46 47 48 49 50
855
NZUS99 KSGF 262007
HRRSGF

HOURLY WEATHER
NATIONAL WEATHER SERVICE SPRINGFIELD MO
200 PM CST SUN FEB 26 2017

......SGF CWA......

CITY           SKY/WX    TMP DP  RH WIND       PRES   REMARKS
SPRINGFIELD    CLOUDY    37  34  89 SE9       30.01F WCI  30
JOPLIN         CLOUDY    42  38  85 E12       29.98F
WEST PLAINS    CLOUDY    48  21  34 S9        30.07F
ROLLA          CLOUDY    43  29  57 SW18G24   30.04F
OSAGE BEACH    LGT RAIN  41  36  82 SW12      30.07R
BRANSON        CLOUDY    46  25  42 E9        30.01F

......SURROUNDING SGF CWA......

CITY           SKY/WX    TMP DP  RH WIND       PRES   REMARKS
CHANUTE        PTSUNNY   51  30  44 S15       29.95F
PARSONS        CLOUDY    48  30  49 SE9       29.96F
COFFEYVILLE    CLOUDY    47  31  53 SE12      29.96F
EMPORIA        SUNNY     51  25  36 SW9       29.92F
GROVE OK       CLOUDY    50  32  50 E7        29.97F
ROGERS AR      CLOUDY    48  28  46 E7        29.97F
SILOAM SPRINGS CLOUDY    52  27  37 SE10      29.95F
HARRISON AR    CLOUDY    49  24  37 E9        30.00F
NEAR YELLVILLE CLOUDY    52  23  32 E8        30.02F

......KANSAS AND MISSOURI......

CITY           SKY/WX    TMP DP  RH WIND       PRES   REMARKS
KANSAS CTY INT MOSUNNY   51  25  36 VRB6      29.95F
DOWNTOWN KC    MOSUNNY   52  25  35 S10       29.96F
COLUMBIA       CLOUDY    47  19  33 S12       30.03F
SEDALIA        CLOUDY    48  20  32 S12       30.02F
ST JOSEPH      PTSUNNY   52  27  38 S12G20    29.94F
ST LOUIS       NOT AVBL
SPIRIT OF STL  CLOUDY    48  17  29 S9        30.07F
KIRKSVILLE     CLOUDY    49  31  49 SW15G28   29.97F
WICHITA        MOSUNNY   51  25  36 VRB3      29.91F
TOPEKA         SUNNY     52  24  33 S12G17    29.93F
OLATHE         MOSUNNY   47  24  40 S12       29.96F

......TENNESSEE......

CITY           SKY/WX    TMP DP  RH WIND       PRES   REMARKS
MEMPHIS        MOSUNNY   59  19  21 S9        30.11F
NASHVILLE      PTSUNNY   54  15  21 SE12      30.16F

......ARKANSAS.......

CITY           SKY/WX    TMP DP  RH WIND       PRES   REMARKS
FAYETTEVILLE   CLOUDY    51  26  37 SE8       29.96F
FT SMITH       MOSUNNY   58  25  28 SE12      29.96F
LITTLE ROCK    PTSUNNY   57  30  35 SE9G17    30.06F

......OKLAHOMA.......

CITY           SKY/WX    TMP DP  RH WIND       PRES   REMARKS
TULSA          CLOUDY    58  30  34 SE8       29.89F
PONCA CITY     MOSUNNY   53  27  36 VRB3      29.91F
MCALESTER      CLOUDY    57  36  45 S12G28    29.92F
OKLAHOMA CITY  CLOUDY    57  32  38 SW8       29.87F

......IOWA............

CITY           SKY/WX    TMP DP  RH WIND       PRES   REMARKS
DES MOINES     MOSUNNY   48  25  40 W17G28    29.92R
QUAD CITIES    SUNNY     52  21  29 W20       29.92F

......ILLINOIS........

CITY           SKY/WX    TMP DP  RH WIND       PRES   REMARKS
QUINCY         CLOUDY    46  26  45 S17G26    30.01F
CHICAGO        MOSUNNY   47  20  34 SW24G35   29.92F




USA.gov is the U.S. government's official web portal to all federal, state and local government web resources and services.